[[{"header":{"parameterUnit":"m.s-1","parameterCategory":1,"la1":30.2992,"la2":30.254,"lo1":-89.0895,"lo2":-89.0443,"dy":0.0025,"dx":0.0025,"nx":19,"ny":19,"refTime":"2026-03-11T21:00:00:Z","depth":0,"parameterNumber":2,"parameterNumberName":"U-component_of_WINDS"},"data":[0,0,0,-1.1772,-1.1773,-1.1792,-1.1792,-1.1816,-1.1816,0,0,0,0,0,0,0,0,0,0,0,-1.1766,-1.1766,-1.1772,-1.1773,-1.1792,-1.1792,-1.1816,-1.1816,0,0,0,0,0,0,0,0,0,0,0,-1.1766,-1.1766,-1.1766,-1.1773,-1.1792,-1.1792,-1.1816,-1.1802,0,0,0,0,0,0,0,0,0,0,-1.1783,-1.1776,-1.1766,-1.1766,-1.1773,-1.1792,-1.1792,-1.1801,-1.1803,-1.1807,0,-1.181,0,-1.1813,-1.1817,-1.1818,0,0,0,-1.1774,-1.1774,-1.1781,-1.1766,-1.1773,-1.1792,-1.1784,-1.1802,-1.1804,-1.1809,-1.181,-1.1811,-1.1814,-1.1818,-1.1818,-1.1838,-1.1838,0,0,-1.1773,-1.1769,-1.1779,-1.1782,-1.1778,-1.1783,-1.1784,-1.1803,-1.1804,-1.181,-1.1811,-1.1814,-1.1818,-1.1818,-1.1838,-1.1838,0,0,0,-1.1769,-1.1768,-1.1774,-1.1781,-1.1784,-1.1783,-1.1785,-1.1803,-1.1805,-1.1812,-1.1814,-1.1818,-1.1818,-1.1838,-1.1838,-1.1836,0,0,0,-1.1768,-1.1766,-1.1773,-1.1771,-1.1784,-1.1794,-1.1785,-1.1804,-1.1806,-1.1814,-1.1818,-1.1818,-1.1838,-1.1838,-1.1836,-1.1836,0,0,0,-1.1765,-1.1765,-1.1768,-1.177,-1.1778,-1.1794,-1.1797,-1.1805,-1.1808,-1.1818,-1.1818,-1.1838,-1.1838,-1.1836,-1.1836,-1.184,0,0,0,-1.176,-1.1766,-1.1767,-1.1775,-1.1778,-1.1792,-1.1797,-1.1808,-1.1816,-1.1818,-1.1838,-1.1838,-1.1836,-1.1836,-1.184,-1.1843,-1.1843,0,0,-1.1765,-1.1766,-1.1771,-1.1773,-1.1786,-1.179,-1.1803,-1.1814,-1.1819,-1.1832,-1.1832,-1.1836,-1.1836,-1.184,-1.185,-1.185,0,0,0,-1.1771,-1.1775,-1.1779,-1.1787,-1.1796,-1.1804,-1.1814,-1.1818,-1.1829,-1.1824,-1.1839,-1.1839,-1.1842,-1.1843,-1.1844,-1.1846,-1.1839,-1.1839,-1.1839,-1.1772,-1.1778,-1.1787,-1.1796,-1.1803,-1.1814,-1.1821,-1.1829,-1.1833,-1.1837,-1.184,-1.1845,-1.1847,-1.1847,-1.185,-1.1843,-1.1843,-1.1843,-1.1843,-1.1779,-1.1785,-1.1792,-1.1802,-1.1809,-1.1819,-1.183,-1.1833,-1.1843,-1.1843,-1.1846,-1.1844,-1.1848,-1.185,-1.1842,-1.1843,-1.1843,-1.1843,-1.1843,-1.178,-1.1784,-1.179,-1.1802,-1.1811,-1.1821,-1.183,-1.1837,-1.1843,-1.1845,-1.185,-1.185,-1.1851,-1.1847,-1.1847,-1.1847,-1.1847,-1.1847,-1.1847,-1.1778,-1.1784,-1.1791,-1.1803,-1.1809,-1.1818,-1.1831,-1.1837,-1.1846,-1.185,-1.185,-1.1854,-1.1847,-1.1845,-1.1848,-1.1848,-1.1848,-1.1848,-1.1848,-1.1782,-1.1783,-1.1793,-1.18,-1.1814,-1.1823,-1.1832,-1.1845,-1.1852,-1.1856,-1.186,-1.1854,-1.1856,-1.1855,-1.1854,-1.1859,-1.1859,-1.1859,-1.1859,-1.1782,-1.1784,-1.1797,-1.1807,-1.1818,-1.1827,-1.184,-1.185,-1.1861,-1.1866,-1.1867,-1.1865,-1.1864,-1.1866,-1.1866,-1.1864,-1.1872,-1.1872,-1.1872,-1.1785,-1.1789,-1.1798,-1.1808,-1.1821,-1.1831,-1.1844,-1.1856,-1.1868,-1.1873,-1.187,-1.1869,-1.1867,-1.1866,-1.1869,-1.1868,-1.1865,0,0]},{"header":{"parameterUnit":"m.s-1","parameterCategory":1,"la1":30.2992,"la2":30.254,"lo1":-89.0895,"lo2":-89.0443,"dy":0.0025,"dx":0.0025,"nx":19,"ny":19,"refTime":"2026-03-11T21:00:00:Z","depth":0,"parameterNumber":3,"parameterNumberName":"V-component_of_WINDS"},"data":[0,0,0,1.4382,1.4381,1.4339,1.4339,1.4278,1.4277,0,0,0,0,0,0,0,0,0,0,0,1.4392,1.4391,1.4382,1.4381,1.4339,1.4339,1.4278,1.4277,0,0,0,0,0,0,0,0,0,0,0,1.4392,1.4392,1.4391,1.4381,1.4339,1.4339,1.4278,1.4312,0,0,0,0,0,0,0,0,0,0,1.4354,1.4361,1.4392,1.4391,1.4381,1.4339,1.4339,1.4313,1.431,1.4294,0,1.4282,0,1.4279,1.4273,1.4272,0,0,0,1.4382,1.4364,1.4355,1.4391,1.438,1.4339,1.4358,1.4311,1.4307,1.4289,1.4281,1.4279,1.4277,1.4272,1.4272,1.4183,1.4182,0,0,1.4385,1.4382,1.4358,1.4352,1.4361,1.436,1.4357,1.4309,1.4299,1.4281,1.4277,1.4276,1.4272,1.4271,1.4183,1.4183,0,0,0,1.439,1.4384,1.4377,1.4355,1.4348,1.4358,1.4355,1.4301,1.4299,1.4277,1.4276,1.4271,1.4271,1.4184,1.4183,1.4157,0,0,0,1.4392,1.4387,1.4377,1.4376,1.4349,1.4324,1.4348,1.4302,1.4297,1.4276,1.4271,1.427,1.4184,1.4183,1.4159,1.4145,0,0,0,1.4395,1.4388,1.4381,1.4376,1.4358,1.4325,1.432,1.4301,1.4296,1.4272,1.427,1.4185,1.4184,1.4161,1.4148,1.412,0,0,0,1.4398,1.4358,1.4381,1.4336,1.4358,1.4311,1.4321,1.4285,1.4262,1.4271,1.4184,1.4183,1.4162,1.4149,1.4122,1.4096,1.4086,0,0,1.4347,1.4352,1.4326,1.4345,1.4293,1.4317,1.4261,1.4241,1.4239,1.4201,1.4199,1.4159,1.4148,1.4121,1.4029,1.4021,0,0,0,1.4309,1.429,1.4276,1.4255,1.424,1.4225,1.4215,1.4207,1.4175,1.422,1.4142,1.4136,1.412,1.4107,1.41,1.4086,1.4178,1.4178,1.4178,1.4231,1.4234,1.419,1.4187,1.4166,1.4156,1.4138,1.4126,1.4133,1.4115,1.4103,1.4048,1.4033,1.4028,1.4013,1.4091,1.4091,1.4091,1.409,1.4155,1.4128,1.414,1.4102,1.4104,1.4071,1.4059,1.4066,1.4034,1.4057,1.4043,1.4066,1.4019,1.4006,1.4089,1.4089,1.4089,1.4089,1.4089,1.4103,1.4091,1.4084,1.4053,1.4029,1.4027,1.3997,1.4,1.4002,1.3988,1.3975,1.3976,1.3975,1.3982,1.3982,1.3982,1.3982,1.3981,1.3981,1.4052,1.4045,1.402,1.4002,1.3988,1.3971,1.396,1.3946,1.3931,1.3936,1.3935,1.3943,1.4015,1.4031,1.3978,1.3979,1.3979,1.398,1.398,1.3971,1.3991,1.3952,1.3939,1.3917,1.3892,1.3897,1.3868,1.3857,1.3842,1.3853,1.3906,1.3911,1.3917,1.393,1.3854,1.3854,1.3854,1.3854,1.3927,1.3931,1.3892,1.387,1.385,1.385,1.3804,1.3796,1.3789,1.3782,1.3794,1.3813,1.3819,1.382,1.3828,1.3841,1.3743,1.3743,1.3743,1.3877,1.3879,1.384,1.3836,1.3819,1.3804,1.3761,1.3734,1.373,1.3739,1.3776,1.3781,1.3812,1.3822,1.383,1.3842,1.3866,0,0]}]]